Craig, CO

7:47 AM MST on February 23, 2017 (GMT -0700)
Craig-Moffat

Weather History for KCAG - June, 2013

Change the Weather History Date:

Thursday, June 27, 2013

  Actual Average Record
Temperature  
Mean Temperature 71 °F 63 °F  
Max Temperature 95 °F 83 °F 95 °F (2013)
Min Temperature 47 °F 43 °F 36 °F (2003)
Degree Days  
Heating Degree Days 0 3  
Month to date heating degree days 88 169  
Since 1 June heating degree days 88 169  
Since 1 July heating degree days 8587 8628  
Cooling Degree Days 6 1  
Month to date cooling degree days 22 4  
Year to date cooling degree days 22 4  
Since 1 June cooling degree days 22 4  
Growing Degree Days 20 (Base 50)    
Moisture  
Dew Point 39 °F    
Average Humidity 45    
Maximum Humidity 80    
Minimum Humidity 10    
Precipitation  
Precipitation 0.00 in 0.03 in 0.08 in (2004)
Month to date precipitation T 1.24  
Year to date precipitation 5.25 7.43  
Sea Level Pressure  
Sea Level Pressure 30.11 in    
Wind  
Wind Speed 3 mph (East)    
Max Wind Speed 10 mph    
Max Gust Speed 14 mph    
Visibility 10 miles    
Events      
T = Trace of Precipitation, MM = Missing Value Source: NWS Daily Summary

Daily Weather History Graph

Daily Weather History Graph

Search for Another Location

Airport or City:

Trip Planner

Search our weather history database for the weather conditions in past years. The results will help you decide how hot, cold, wet, or windy it might be!

Date:

Astronomy

Jun. 27, 2013 Rise Set
Actual Time 5:41 AM MDT 8:44 PM MDT
Civil Twilight 5:08 AM MDT 9:17 PM MDT
Nautical Twilight 4:26 AM MDT 9:59 PM MDT
Astronomical Twilight 3:36 AM MDT 10:49 PM MDT
Moon 11:42 PM MDT (6/27) 10:47 AM MDT (6/27)
Length of Visible Light 16h 09m
Length of Day
15h 02m
Waning Gibbous, 76% of the Moon is Illuminated
Jun 27
Waning Gibbous
Jun 29
Last Quarter
Jul 8
New
Jul 15
First Quarter
Jul 22
Full

Hourly Weather History & Observations

Time (MDT) Temp. Dew Point Humidity Pressure Visibility Wind Dir Wind Speed Gust Speed Precip Events Conditions
12:53 AM 55.0 °F 42.1 °F 62% 30.05 in 10.0 mi WSW 3.5 mph - N/A   Clear
1:53 AM 57.0 °F 44.1 °F 62% 30.06 in 10.0 mi Calm Calm - N/A   Clear
2:53 AM 53.1 °F 44.1 °F 71% 30.08 in 10.0 mi Calm Calm - N/A   Clear
3:53 AM 53.1 °F 41.0 °F 64% 30.09 in 10.0 mi East 5.8 mph - N/A   Clear
4:53 AM 51.1 °F 41.0 °F 68% 30.11 in 10.0 mi Calm Calm - N/A   Clear
5:53 AM 48.9 °F 42.1 °F 77% 30.14 in 10.0 mi Calm Calm - N/A   Clear
6:53 AM 53.1 °F 41.0 °F 64% 30.16 in 10.0 mi Calm Calm - N/A   Clear
7:53 AM 63.0 °F 41.0 °F 45% 30.14 in 10.0 mi ENE 4.6 mph - N/A   Clear
8:53 AM 71.1 °F 43.0 °F 36% 30.17 in 10.0 mi NE 5.8 mph - N/A   Clear
9:53 AM 77.0 °F 43.0 °F 30% 30.17 in 10.0 mi NE 5.8 mph - N/A   Clear
10:53 AM 82.0 °F 44.1 °F 26% 30.16 in 10.0 mi Calm Calm - N/A   Clear
11:53 AM 87.1 °F 36.0 °F 16% 30.15 in 10.0 mi Variable 3.5 mph - N/A   Clear
12:53 PM 89.1 °F 37.0 °F 16% 30.14 in 10.0 mi SSW 5.8 mph - N/A   Clear
1:53 PM 91.9 °F 33.1 °F 12% 30.11 in 10.0 mi SSW 3.5 mph - N/A   Clear
2:53 PM 91.9 °F 30.0 °F 11% 30.11 in 10.0 mi Variable 4.6 mph - N/A   Clear
3:53 PM 93.0 °F 30.9 °F 11% 30.09 in 10.0 mi ESE 4.6 mph - N/A   Clear
4:53 PM 93.0 °F 30.0 °F 11% 30.08 in 10.0 mi SSE 3.5 mph - N/A   Clear
5:53 PM 91.9 °F 30.0 °F 11% 30.08 in 10.0 mi Calm Calm - N/A   Clear
6:53 PM 91.0 °F 28.9 °F 11% 30.06 in 10.0 mi Calm Calm - N/A   Clear
7:53 PM 87.1 °F 44.1 °F 22% 30.04 in 10.0 mi East 3.5 mph - N/A   Clear
8:53 PM 77.0 °F 39.9 °F 26% 30.06 in 10.0 mi Variable 3.5 mph - N/A   Clear
9:53 PM 66.9 °F 48.9 °F 52% 30.09 in 10.0 mi NNE 3.5 mph - N/A   Clear
10:53 PM 64.0 °F 45.0 °F 50% 30.09 in 10.0 mi ESE 3.5 mph - N/A   Clear
11:53 PM 63.0 °F 42.1 °F 46% 30.08 in 10.0 mi East 4.6 mph - N/A   Clear